CZ-2C DEB

Satellite information

Favourite Embed

Satellite Type and Status

DEBRISIN ORBIT

Key statistics

Satellite CZ-2C DEB at a glance.

Uptime

3935

Days in orbit

Revolutions

≈ 14.3

Per day

Orbit

SSO

Sun Synchronous Orbit

Inclination

97.9

Latest

Satellite identification and parameters

Extended collection of information and parameters for CZ-2C DEB.

Object identification

Identified? True

Debris? True

Object name: CZ-2C DEB

International designator: 2014-059E

Object number (NORAD): 40265

Object ID (CCSDS): 40265

Country: PEOPLES REPUBLIC OF CHINA (PRC)

Current information (Y/N): Y

RCS size: SMALL

Orbital parameters

Period: 100.662 minutes

Inclination: 97.9435 deg

SMA: 7168.098 km

Apoapsis: 910.293 km

Periapsis: 669.633 km

RAAN: 285.1027 deg

Eccentricy: 0.0167869

Argument of periapsis: 73.7721 deg

Mean anomaly: 288.186 deg

Mean motion: 14.30529627 rev/day

Mean motion (dot): 0.00002104 rev/day2

B* drag term: 0.0007051 1/REarth

Two-line elements (TLE)

Creation date: July 6, 2025, 6:05 p.m.

Reference frame: TEME

Reference center: EARTH

Epoch: July 6, 2025, 5:48 a.m. UTC

TLE line 0: 0 CZ-2C DEB

TLE line 1: 1 40265U 14059E 25187.24181882 .00002104 00000-0 70510-3 0 9996

TLE line 2: 2 40265 97.9435 285.1027 0167869 73.7721 288.1860 14.30529627558667

Live tracking on map

Real-time ground track for satellite CZ-2C DEB.

In-orbit conjunctions

A list of the most updated potential collisions computed for object CZ-2C DEB.

Target Orbit TCA Probability of collision Miss distance Type
CZ-6A DEB LEO 2024-12-31 19:04:48 0.0001015633 310.0 (m) DEBRIS

Associated space launch

CZ-2C DEB was lifted into orbit during the mission ‘Long March 2C | Shijian 11-07’, on board a Long March 2 space rocket.

The launch took place on Sept. 28, 2014, 5:13 a.m. from Launch Area 4 (SLS-2 / 603).

For more information about the launch, click the button.

Launch to space Long March 2C | Shijian 11-07
Long March 2C | Shijian 11-07

Agency: N/A

Status: Launch Successful

Launch date: Sept. 28, 2014, 5:13 a.m. UTC

Rocket: Long March 2

Launch pad: Launch Area 4 (SLS-2 / 603)

Location: Jiuquan Satellite Launch Center, People's Republic of China

...

Latest news about this satellite

There are no fresh news available about this satellite. Check back as we update our databases every day.


Newsletter sign-up

Weekly statistics, charts and insights to help you stay on top of the space industry.